Terminal Aerodrome Forecast
Issued by NWS

Home | Current Version | Previous Version | Text Only | Print | Product List | Glossary On
Versions: 1 2 3 4 5 6 7 8 9 10 11 12 13 14 15 16 17 18 19 20 21 22 23 24 25 26 27 28 29 30 31 32 33 34 35
000
FTUS43 KDDC 270522
TAFGCK
TAF
KGCK 270522Z 2706/2806 13007KT P6SM SCT200
      TEMPO 2710/2713 3SM BR
     FM271700 15015G25KT P6SM SCT050=

USA.gov is the U.S. government's official web portal to all federal, state and local government web resources and services.